sat.trackr.live / text

‹ back to catalog

KUIPER-00093

NORAD 64838 · 2025-151Y

PAYLOAD ACTIVE UNKNOWN

§ Identity

Operator
Country
US
Launch date
2025-07-16
Launch site
AFETR
Launch vehicle
Mass (kg)
RCS (m²)

External: N2YO · Heavens-Above · Gunter

§ Orbital elements

Epoch: 2026-09-21T20:11:05.844768Z

Period
97.30 min
Inclination
51.9003°
Eccentricity
0.0000938
Mean motion
14.79933383 rev/d
Perigee alt
628.9 km
Apogee alt
630.2 km
Semi-major
7,007.7 km
B*
2.6988e-4
RAAN
145.6941°
Arg perigee
106.3965°
Mean anomaly
253.7101°
Rev number
6,445

§ Raw data

KUIPER-000931 64838U 25151Y   26264.84103987  .00001837  00000+0  26988-3 0  99972 64838  51.9003 145.6941 0000938 106.3965 253.7101 14.79933383 64457

JSON: /api/v1/satellites/64838 · /tle

For live sub-satellite position, see the globe view (requires WebGL).

§ Visibility from observer

Set your observer location to see the next 7 days of passes ≥ 10°. The values pass through the URL so the page stays shareable.

No JS? Fill the form by hand. The geolocation button needs JavaScript.